Location: Buchloe
(48.0161°N, 10.7316°E)
Time: 02:59:10
(UTC+02:00)

ISS - Visible Passes

Search period start: 02 October 2022 00:00
Search period end: 12 October 2022 00:00
Orbit: 416 x 420 km, 51.6° (Epoch: 01 October)

Date Brightness Start Highest point End Pass type
(mag) Time Alt. Az. Time Alt. Az. Time Alt. Az.
02 Oct -3.4 19:43:52 10° WNW 19:47:13 64° SSW 19:50:21 11° SE visible
02 Oct -0.9 21:21:57 10° WSW 21:23:18 12° SW 21:23:18 12° SW visible
03 Oct -1.4 20:33:21 10° W 20:35:51 19° SW 20:37:39 13° S visible
04 Oct -2.0 19:45:19 10° W 19:48:18 29° SW 19:51:16 10° SSE visible
06 Oct -0.8 19:48:06 10° WSW 19:49:40 13° SW 19:51:14 10° SSW visible
